contact: severine.martini@mio.osupytheas.fr, dominique.lefevre@mio.osupytheas.fr
Project:EMSO Ligure-ouest http://www.emso-fr.org/EMSO-France
Sensor Microcat Sea-Bird SBE37 SMP,  Serial 57510 
DOI : "https://doi.org/10.17882/97948" 
Title:EMSO Ligure Ouest : Data Bathybot capteur Microcat - deploiement 2023-04-28
Datetime,Profondeur,Latitude,Longitude,Temperature,Conductivite,Pression,Salinite
time,m,degree_north,degree_east,degree_C,S/m,db,PSU 
2023-11-10T00:00:49,2420,42.8014,5.9826,13.2994,4.35440,2453.537,36.1867
2023-11-10T00:03:49,2420,42.8014,5.9826,13.2988,4.35383,2453.574,36.1820
2023-11-10T00:06:49,2420,42.8014,5.9826,13.2995,4.35430,2453.559,36.1857
2023-11-10T00:09:49,2420,42.8014,5.9826,13.2988,4.35432,2453.544,36.1866
2023-11-10T00:12:49,2420,42.8014,5.9826,13.2990,4.35466,2453.537,36.1895
2023-11-10T00:15:49,2420,42.8014,5.9826,13.2995,4.35437,2453.559,36.1864
2023-11-10T00:18:49,2420,42.8014,5.9826,13.2985,4.35440,2453.559,36.1876
2023-11-10T00:21:49,2420,42.8014,5.9826,13.3000,4.35447,2453.574,36.1868
2023-11-10T00:24:49,2420,42.8014,5.9826,13.3036,4.35502,2453.514,36.1886
2023-11-10T00:27:49,2420,42.8014,5.9826,13.3001,4.35498,2453.551,36.1915
2023-11-10T00:30:50,2420,42.8014,5.9826,13.2986,4.35463,2453.559,36.1897
2023-11-10T00:33:49,2420,42.8014,5.9826,13.2986,4.35494,2453.537,36.1925
2023-11-10T00:36:49,2420,42.8014,5.9826,13.2985,4.35446,2453.559,36.1881
2023-11-10T00:39:49,2420,42.8014,5.9826,13.2987,4.35453,2453.559,36.1886
2023-11-10T00:42:49,2420,42.8014,5.9826,13.2986,4.35468,2453.582,36.1901
2023-11-10T00:45:49,2420,42.8014,5.9826,13.2989,4.35441,2453.537,36.1873
2023-11-10T00:48:49,2420,42.8014,5.9826,13.2990,4.35539,2453.537,36.1963
2023-11-10T00:51:49,2420,42.8014,5.9826,13.3002,4.35399,2453.574,36.1821
2023-11-10T00:54:49,2420,42.8014,5.9826,13.2991,4.35428,2453.559,36.1859
2023-11-10T00:57:49,2420,42.8014,5.9826,13.2985,4.35440,2453.559,36.1875
2023-11-10T01:00:50,2420,42.8014,5.9826,13.2989,4.35432,2453.559,36.1865
2023-11-10T01:03:49,2420,42.8014,5.9826,13.2989,4.35471,2453.522,36.1901
2023-11-10T01:06:49,2420,42.8014,5.9826,13.2988,4.35464,2453.551,36.1895
2023-11-10T01:09:49,2420,42.8014,5.9826,13.2993,4.35419,2453.582,36.1849
2023-11-10T01:12:49,2420,42.8014,5.9826,13.2986,4.35479,2453.537,36.1911
2023-11-10T01:15:49,2420,42.8014,5.9826,13.3001,4.35510,2453.537,36.1926
2023-11-10T01:18:49,2420,42.8014,5.9826,13.3008,4.35496,2453.559,36.1906
2023-11-10T01:21:49,2420,42.8014,5.9826,13.3011,4.35447,2453.537,36.1858
2023-11-10T01:24:50,2420,42.8014,5.9826,13.3029,4.35526,2453.559,36.1915
2023-11-10T01:27:49,2420,42.8014,5.9826,13.2981,4.35518,2453.559,36.1953
2023-11-10T01:30:49,2420,42.8014,5.9826,13.3016,4.35422,2453.582,36.1830
2023-11-10T01:33:49,2420,42.8014,5.9826,13.2986,4.35395,2453.537,36.1832
2023-11-10T01:36:49,2420,42.8014,5.9826,13.2984,4.35402,2453.522,36.1841
2023-11-10T01:39:49,2420,42.8014,5.9826,13.2982,4.35510,2453.559,36.1944
2023-11-10T01:42:49,2420,42.8014,5.9826,13.2982,4.35455,2453.582,36.1892
2023-11-10T01:45:49,2420,42.8014,5.9826,13.2979,4.35479,2453.559,36.1918
2023-11-10T01:48:49,2420,42.8014,5.9826,13.2985,4.35443,2453.537,36.1879
2023-11-10T01:51:49,2420,42.8014,5.9826,13.2978,4.35508,2453.559,36.1945
2023-11-10T01:54:49,2420,42.8014,5.9826,13.2979,4.35450,2453.522,36.1890
2023-11-10T01:57:49,2420,42.8014,5.9826,13.2978,4.35472,2453.559,36.1912
2023-11-10T02:00:49,2420,42.8014,5.9826,13.2985,4.35375,2453.582,36.1815
2023-11-10T02:03:49,2420,42.8014,5.9826,13.2982,4.35362,2453.582,36.1806
2023-11-10T02:06:49,2420,42.8014,5.9826,13.2981,4.35444,2453.582,36.1883
2023-11-10T02:09:49,2420,42.8014,5.9826,13.2979,4.35448,2453.559,36.1889
2023-11-10T02:12:49,2420,42.8014,5.9826,13.2981,4.35504,2453.604,36.1939
2023-11-10T02:15:49,2420,42.8014,5.9826,13.2982,4.35518,2453.590,36.1951
2023-11-10T02:18:49,2420,42.8014,5.9826,13.2988,4.35463,2453.567,36.1894
2023-11-10T02:21:49,2420,42.8014,5.9826,13.2983,4.35409,2453.582,36.1849
2023-11-10T02:24:49,2420,42.8014,5.9826,13.2980,4.35495,2453.582,36.1931
2023-11-10T02:27:50,2420,42.8014,5.9826,13.2985,4.35478,2453.582,36.1911
2023-11-10T02:30:49,2420,42.8014,5.9826,13.2979,4.35469,2453.582,36.1909
2023-11-10T02:33:49,2420,42.8014,5.9826,13.2984,4.35484,2453.619,36.1917
2023-11-10T02:36:49,2420,42.8014,5.9826,13.2980,4.35464,2453.596,36.1903
2023-11-10T02:39:49,2420,42.8014,5.9826,13.2982,4.35469,2453.604,36.1906
2023-11-10T02:42:49,2420,42.8014,5.9826,13.2985,4.35477,2453.604,36.1910
2023-11-10T02:45:49,2420,42.8014,5.9826,13.2979,4.35454,2453.590,36.1894
2023-11-10T02:48:49,2420,42.8014,5.9826,13.2980,4.35500,2453.627,36.1936
2023-11-10T02:51:49,2420,42.8014,5.9826,13.2984,4.35452,2453.604,36.1887
2023-11-10T02:54:50,2420,42.8014,5.9826,13.2991,4.35487,2453.627,36.1914
2023-11-10T02:57:49,2420,42.8014,5.9826,13.2992,4.35474,2453.627,36.1901
2023-11-10T03:00:49,2420,42.8014,5.9826,13.2996,4.35497,2453.627,36.1919
2023-11-10T03:03:49,2420,42.8014,5.9826,13.2988,4.35475,2453.627,36.1906
2023-11-10T03:06:49,2420,42.8014,5.9826,13.2979,4.35510,2453.604,36.1947
2023-11-10T03:09:49,2420,42.8014,5.9826,13.2982,4.35499,2453.604,36.1934
2023-11-10T03:12:49,2420,42.8014,5.9826,13.2984,4.35481,2453.627,36.1914
2023-11-10T03:15:49,2420,42.8014,5.9826,13.2982,4.35504,2453.627,36.1938
2023-11-10T03:18:49,2420,42.8014,5.9826,13.2998,4.35425,2453.627,36.1850
2023-11-10T03:21:49,2420,42.8014,5.9826,13.2986,4.35505,2453.627,36.1936
2023-11-10T03:24:49,2420,42.8014,5.9826,13.2981,4.35524,2453.627,36.1958
2023-11-10T03:27:49,2420,42.8014,5.9826,13.2986,4.35510,2453.627,36.1940
2023-11-10T03:30:49,2420,42.8014,5.9826,13.2982,4.35497,2453.627,36.1931
2023-11-10T03:33:49,2420,42.8014,5.9826,13.2989,4.35510,2453.627,36.1937
2023-11-10T03:36:49,2420,42.8014,5.9826,13.2988,4.35523,2453.627,36.1951
2023-11-10T03:39:49,2420,42.8014,5.9826,13.2983,4.35436,2453.627,36.1874
2023-11-10T03:42:49,2420,42.8014,5.9826,13.2981,4.35482,2453.649,36.1919
2023-11-10T03:45:49,2420,42.8014,5.9826,13.2986,4.35437,2453.672,36.1871
2023-11-10T03:48:49,2420,42.8014,5.9826,13.2988,4.35495,2453.649,36.1923
2023-11-10T03:51:49,2420,42.8014,5.9826,13.3013,4.35495,2453.627,36.1901
2023-11-10T03:54:50,2420,42.8014,5.9826,13.2993,4.35449,2453.627,36.1876
2023-11-10T03:57:49,2420,42.8014,5.9826,13.2991,4.35491,2453.649,36.1918
2023-11-10T04:00:49,2420,42.8014,5.9826,13.2993,4.35538,2453.672,36.1959
2023-11-10T04:03:49,2420,42.8014,5.9826,13.2979,4.35499,2453.649,36.1936
2023-11-10T04:06:49,2420,42.8014,5.9826,13.2988,4.35546,2453.672,36.1972
2023-11-10T04:09:49,2420,42.8014,5.9826,13.2985,4.35523,2453.649,36.1953
2023-11-10T04:12:49,2420,42.8014,5.9826,13.2983,4.35550,2453.649,36.1979
2023-11-10T04:15:49,2420,42.8014,5.9826,13.3007,4.35508,2453.672,36.1918
2023-11-10T04:18:49,2420,42.8014,5.9826,13.2988,4.35470,2453.657,36.1901
2023-11-10T04:21:49,2420,42.8014,5.9826,13.2997,4.35455,2453.695,36.1878
2023-11-10T04:24:49,2420,42.8014,5.9826,13.2988,4.35420,2453.664,36.1854
2023-11-10T04:27:49,2420,42.8014,5.9826,13.2981,4.35481,2453.680,36.1917
2023-11-10T04:30:49,2420,42.8014,5.9826,13.2989,4.35457,2453.680,36.1887
2023-11-10T04:33:49,2420,42.8014,5.9826,13.2985,4.35428,2453.649,36.1865
2023-11-10T04:36:49,2420,42.8014,5.9826,13.2986,4.35445,2453.635,36.1879
2023-11-10T04:39:49,2420,42.8014,5.9826,13.2983,4.35466,2453.695,36.1902
2023-11-10T04:42:49,2420,42.8014,5.9826,13.2992,4.35495,2453.657,36.1920
2023-11-10T04:45:49,2420,42.8014,5.9826,13.2983,4.35482,2453.680,36.1916
2023-11-10T04:48:49,2420,42.8014,5.9826,13.2988,4.35441,2453.695,36.1874
2023-11-10T04:51:49,2420,42.8014,5.9826,13.2989,4.35477,2453.657,36.1906
2023-11-10T04:54:49,2420,42.8014,5.9826,13.2979,4.35506,2453.657,36.1942
2023-11-10T04:57:49,2420,42.8014,5.9826,13.2982,4.35532,2453.695,36.1964
2023-11-10T05:00:50,2420,42.8014,5.9826,13.2988,4.35490,2453.649,36.1920
2023-11-10T05:03:49,2420,42.8014,5.9826,13.2980,4.35516,2453.709,36.1950
2023-11-10T05:06:49,2420,42.8014,5.9826,13.2988,4.35515,2453.695,36.1943
2023-11-10T05:09:49,2420,42.8014,5.9826,13.2981,4.35508,2453.635,36.1943
2023-11-10T05:12:49,2420,42.8014,5.9826,13.2990,4.35440,2453.672,36.1870
2023-11-10T05:15:49,2420,42.8014,5.9826,13.2985,4.35434,2453.672,36.1870
2023-11-10T05:18:49,2420,42.8014,5.9826,13.2982,4.35501,2453.672,36.1935
2023-11-10T05:21:49,2420,42.8014,5.9826,13.2985,4.35523,2453.695,36.1953
2023-11-10T05:24:49,2420,42.8014,5.9826,13.2978,4.35518,2453.687,36.1954
2023-11-10T05:27:49,2420,42.8014,5.9826,13.2985,4.35526,2453.672,36.1956
2023-11-10T05:30:49,2420,42.8014,5.9826,13.2988,4.35495,2453.672,36.1924
2023-11-10T05:33:49,2420,42.8014,5.9826,13.2983,4.35510,2453.702,36.1942
2023-11-10T05:36:49,2420,42.8014,5.9826,13.2983,4.35516,2453.664,36.1948
2023-11-10T05:39:49,2420,42.8014,5.9826,13.2986,4.35529,2453.695,36.1957
2023-11-10T05:42:49,2420,42.8014,5.9826,13.2983,4.35497,2453.649,36.1931
2023-11-10T05:45:49,2420,42.8014,5.9826,13.2983,4.35485,2453.672,36.1919
2023-11-10T05:48:49,2420,42.8014,5.9826,13.2983,4.35516,2453.695,36.1948
2023-11-10T05:51:49,2420,42.8014,5.9826,13.2986,4.35515,2453.649,36.1944
2023-11-10T05:54:49,2420,42.8014,5.9826,13.2986,4.35541,2453.649,36.1969
2023-11-10T05:57:49,2420,42.8014,5.9826,13.2989,4.35540,2453.717,36.1965
2023-11-10T06:00:49,2420,42.8014,5.9826,13.2981,4.35505,2453.695,36.1940
2023-11-10T06:03:49,2420,42.8014,5.9826,13.2985,4.35521,2453.657,36.1951
2023-11-10T06:06:49,2420,42.8014,5.9826,13.2979,4.35525,2453.695,36.1960
2023-11-10T06:09:49,2420,42.8014,5.9826,13.2991,4.35510,2453.695,36.1935
2023-11-10T06:12:49,2420,42.8014,5.9826,13.2975,4.35572,2453.687,36.2007
2023-11-10T06:15:49,2420,42.8014,5.9826,13.2983,4.35562,2453.672,36.1991
2023-11-10T06:18:50,2420,42.8014,5.9826,13.2982,4.35546,2453.672,36.1977
2023-11-10T06:21:49,2420,42.8014,5.9826,13.2980,4.35477,2453.717,36.1914
2023-11-10T06:24:49,2420,42.8014,5.9826,13.2981,4.35532,2453.695,36.1965
2023-11-10T06:27:49,2420,42.8014,5.9826,13.2984,4.35495,2453.672,36.1928
2023-11-10T06:30:50,2420,42.8014,5.9826,13.2979,4.35422,2453.695,36.1863
2023-11-10T06:33:49,2420,42.8014,5.9826,13.2985,4.35485,2453.649,36.1917
2023-11-10T06:36:49,2420,42.8014,5.9826,13.2983,4.35480,2453.672,36.1914
2023-11-10T06:39:49,2420,42.8014,5.9826,13.2982,4.35512,2453.649,36.1946
2023-11-10T06:42:49,2420,42.8014,5.9826,13.2976,4.35547,2453.649,36.1984
2023-11-10T06:45:49,2420,42.8014,5.9826,13.2980,4.35562,2453.672,36.1994
2023-11-10T06:48:49,2420,42.8014,5.9826,13.2982,4.35585,2453.657,36.2014
2023-11-10T06:51:49,2420,42.8014,5.9826,13.2975,4.35529,2453.664,36.1967
2023-11-10T06:54:49,2420,42.8014,5.9826,13.2979,4.35510,2453.687,36.1945
2023-11-10T06:57:49,2420,42.8014,5.9826,13.2981,4.35508,2453.627,36.1942
2023-11-10T07:00:50,2420,42.8014,5.9826,13.2978,4.35521,2453.649,36.1958
2023-11-10T07:03:49,2420,42.8014,5.9826,13.2982,4.35578,2453.649,36.2007
2023-11-10T07:06:49,2420,42.8014,5.9826,13.2978,4.35498,2453.649,36.1937
2023-11-10T07:09:49,2420,42.8014,5.9826,13.2977,4.35534,2453.672,36.1971
2023-11-10T07:12:49,2420,42.8014,5.9826,13.2978,4.35565,2453.649,36.1999
2023-11-10T07:15:49,2420,42.8014,5.9826,13.2982,4.35515,2453.635,36.1949
2023-11-10T07:18:49,2420,42.8014,5.9826,13.2980,4.35508,2453.649,36.1944
2023-11-10T07:21:49,2420,42.8014,5.9826,13.2982,4.35570,2453.649,36.2000
2023-11-10T07:24:49,2420,42.8014,5.9826,13.2979,4.35469,2453.604,36.1907
2023-11-10T07:27:49,2420,42.8014,5.9826,13.2980,4.35568,2453.672,36.1999
2023-11-10T07:30:49,2420,42.8014,5.9826,13.2980,4.35550,2453.635,36.1983
2023-11-10T07:33:49,2420,42.8014,5.9826,13.2982,4.35500,2453.627,36.1935
2023-11-10T07:36:49,2420,42.8014,5.9826,13.2977,4.35529,2453.627,36.1967
2023-11-10T07:39:49,2420,42.8014,5.9826,13.2978,4.35584,2453.672,36.2016
2023-11-10T07:42:49,2420,42.8014,5.9826,13.2979,4.35545,2453.627,36.1979
2023-11-10T07:45:49,2420,42.8014,5.9826,13.2979,4.35596,2453.627,36.2027
2023-11-10T07:48:49,2420,42.8014,5.9826,13.2978,4.35588,2453.604,36.2020
2023-11-10T07:51:49,2420,42.8014,5.9826,13.2982,4.35547,2453.604,36.1979
2023-11-10T07:54:49,2420,42.8014,5.9826,13.2982,4.35538,2453.612,36.1970
2023-11-10T07:57:49,2420,42.8014,5.9826,13.2981,4.35591,2453.627,36.2020
2023-11-10T08:00:49,2420,42.8014,5.9826,13.2981,4.35593,2453.627,36.2022
2023-11-10T08:03:49,2420,42.8014,5.9826,13.2979,4.35590,2453.649,36.2021
2023-11-10T08:06:49,2420,42.8014,5.9826,13.2982,4.35569,2453.627,36.1999
2023-11-10T08:09:49,2420,42.8014,5.9826,13.2981,4.35555,2453.649,36.1986
2023-11-10T08:12:49,2420,42.8014,5.9826,13.2982,4.35573,2453.582,36.2003
2023-11-10T08:15:49,2420,42.8014,5.9826,13.2981,4.35622,2453.582,36.2050
2023-11-10T08:18:49,2420,42.8014,5.9826,13.2980,4.35588,2453.627,36.2018
2023-11-10T08:21:49,2420,42.8014,5.9826,13.2985,4.35599,2453.590,36.2024
2023-11-10T08:24:49,2420,42.8014,5.9826,13.2986,4.35576,2453.567,36.2001
2023-11-10T08:27:49,2420,42.8014,5.9826,13.2979,4.35615,2453.567,36.2045
2023-11-10T08:30:49,2420,42.8014,5.9826,13.2989,4.35607,2453.604,36.2028
2023-11-10T08:33:49,2420,42.8014,5.9826,13.2982,4.35614,2453.590,36.2041
2023-11-10T08:36:49,2420,42.8014,5.9826,13.2981,4.35628,2453.604,36.2055
2023-11-10T08:39:49,2420,42.8014,5.9826,13.2984,4.35564,2453.619,36.1992
2023-11-10T08:42:49,2420,42.8014,5.9826,13.2985,4.35589,2453.604,36.2015
2023-11-10T08:45:49,2420,42.8014,5.9826,13.2995,4.35630,2453.604,36.2043
2023-11-10T08:48:49,2420,42.8014,5.9826,13.2984,4.35617,2453.582,36.2042
2023-11-10T08:51:49,2420,42.8014,5.9826,13.2996,4.35615,2453.590,36.2029
2023-11-10T08:54:50,2420,42.8014,5.9826,13.2991,4.35636,2453.582,36.2053
2023-11-10T08:57:49,2420,42.8014,5.9826,13.2991,4.35612,2453.582,36.2031
2023-11-10T09:00:49,2420,42.8014,5.9826,13.2988,4.35597,2453.582,36.2020
2023-11-10T09:03:49,2420,42.8014,5.9826,13.2995,4.35622,2453.582,36.2036
2023-11-10T09:06:49,2420,42.8014,5.9826,13.2994,4.35619,2453.559,36.2034
2023-11-10T09:09:49,2420,42.8014,5.9826,13.2984,4.35607,2453.582,36.2032
2023-11-10T09:12:49,2420,42.8014,5.9826,13.2994,4.35641,2453.604,36.2054
2023-11-10T09:15:49,2420,42.8014,5.9826,13.2993,4.35589,2453.590,36.2008
2023-11-10T09:18:49,2420,42.8014,5.9826,13.2988,4.35617,2453.582,36.2038
2023-11-10T09:21:49,2420,42.8014,5.9826,13.2991,4.35615,2453.559,36.2033
2023-11-10T09:24:49,2420,42.8014,5.9826,13.2990,4.35639,2453.590,36.2057
2023-11-10T09:27:49,2420,42.8014,5.9826,13.2991,4.35648,2453.559,36.2064
2023-11-10T09:30:50,2420,42.8014,5.9826,13.2988,4.35641,2453.559,36.2060
2023-11-10T09:33:49,2420,42.8014,5.9826,13.2988,4.35610,2453.567,36.2032
2023-11-10T09:36:49,2420,42.8014,5.9826,13.2983,4.35615,2453.582,36.2041
2023-11-10T09:39:49,2420,42.8014,5.9826,13.3002,4.35622,2453.582,36.2030
2023-11-10T09:42:49,2420,42.8014,5.9826,13.2996,4.35633,2453.619,36.2046
2023-11-10T09:45:49,2420,42.8014,5.9826,13.2990,4.35669,2453.559,36.2085
2023-11-10T09:48:49,2420,42.8014,5.9826,13.2992,4.35598,2453.582,36.2016
2023-11-10T09:51:49,2420,42.8014,5.9826,13.2991,4.35633,2453.559,36.2051
2023-11-10T09:54:49,2420,42.8014,5.9826,13.2988,4.35668,2453.582,36.2086
2023-11-10T09:57:50,2420,42.8014,5.9826,13.2989,4.35667,2453.574,36.2083
2023-11-10T10:00:49,2420,42.8014,5.9826,13.2992,4.35599,2453.567,36.2017
2023-11-10T10:03:49,2420,42.8014,5.9826,13.2995,4.35630,2453.604,36.2044
2023-11-10T10:06:49,2420,42.8014,5.9826,13.2986,4.35669,2453.559,36.2089
2023-11-10T10:09:49,2420,42.8014,5.9826,13.2985,4.35643,2453.559,36.2065
2023-11-10T10:12:49,2420,42.8014,5.9826,13.2979,4.35631,2453.582,36.2059
2023-11-10T10:15:49,2420,42.8014,5.9826,13.2987,4.35617,2453.582,36.2039
2023-11-10T10:18:49,2420,42.8014,5.9826,13.2982,4.35607,2453.582,36.2034
2023-11-10T10:21:49,2420,42.8014,5.9826,13.2985,4.35611,2453.582,36.2035
2023-11-10T10:24:49,2420,42.8014,5.9826,13.2985,4.35646,2453.544,36.2068
2023-11-10T10:27:49,2420,42.8014,5.9826,13.2986,4.35630,2453.582,36.2053
2023-11-10T10:30:49,2420,42.8014,5.9826,13.2982,4.35629,2453.559,36.2055
2023-11-10T10:33:49,2420,42.8014,5.9826,13.2985,4.35602,2453.559,36.2028
2023-11-10T10:36:49,2420,42.8014,5.9826,13.2983,4.35638,2453.559,36.2062
2023-11-10T10:39:49,2420,42.8014,5.9826,13.2983,4.35619,2453.559,36.2045
2023-11-10T10:42:49,2420,42.8014,5.9826,13.2988,4.35596,2453.559,36.2019
2023-11-10T10:45:49,2420,42.8014,5.9826,13.2985,4.35648,2453.582,36.2070
2023-11-10T10:48:49,2420,42.8014,5.9826,13.2985,4.35616,2453.559,36.2040
2023-11-10T10:51:49,2420,42.8014,5.9826,13.2982,4.35607,2453.582,36.2035
2023-11-10T10:54:49,2420,42.8014,5.9826,13.2982,4.35603,2453.537,36.2031
2023-11-10T10:57:49,2420,42.8014,5.9826,13.2986,4.35623,2453.544,36.2046
2023-11-10T11:00:50,2420,42.8014,5.9826,13.2985,4.35600,2453.582,36.2025
2023-11-10T11:03:49,2420,42.8014,5.9826,13.2986,4.35625,2453.604,36.2047
2023-11-10T11:06:49,2420,42.8014,5.9826,13.2985,4.35612,2453.604,36.2036
2023-11-10T11:09:49,2420,42.8014,5.9826,13.2986,4.35625,2453.544,36.2048
2023-11-10T11:12:49,2420,42.8014,5.9826,13.2984,4.35606,2453.590,36.2031
2023-11-10T11:15:49,2420,42.8014,5.9826,13.2986,4.35675,2453.582,36.2094
2023-11-10T11:18:49,2420,42.8014,5.9826,13.2983,4.35637,2453.559,36.2061
2023-11-10T11:21:49,2420,42.8014,5.9826,13.2986,4.35636,2453.604,36.2057
2023-11-10T11:24:49,2420,42.8014,5.9826,13.2985,4.35641,2453.604,36.2063
2023-11-10T11:27:49,2420,42.8014,5.9826,13.2984,4.35617,2453.559,36.2042
2023-11-10T11:30:49,2420,42.8014,5.9826,13.2983,4.35601,2453.582,36.2028
2023-11-10T11:33:49,2420,42.8014,5.9826,13.2984,4.35589,2453.559,36.2016
2023-11-10T11:36:49,2420,42.8014,5.9826,13.2985,4.35616,2453.514,36.2040
2023-11-10T11:39:49,2420,42.8014,5.9826,13.2986,4.35629,2453.582,36.2051
2023-11-10T11:42:49,2420,42.8014,5.9826,13.2985,4.35609,2453.559,36.2033
2023-11-10T11:45:49,2420,42.8014,5.9826,13.2984,4.35592,2453.567,36.2019
2023-11-10T11:48:49,2420,42.8014,5.9826,13.2984,4.35611,2453.582,36.2036
2023-11-10T11:51:49,2420,42.8014,5.9826,13.2983,4.35657,2453.567,36.2080
2023-11-10T11:54:49,2420,42.8014,5.9826,13.2985,4.35630,2453.604,36.2053
2023-11-10T11:57:50,2420,42.8014,5.9826,13.2985,4.35584,2453.559,36.2011
2023-11-10T12:00:49,2420,42.8014,5.9826,13.2986,4.35615,2453.559,36.2038
2023-11-10T12:03:49,2420,42.8014,5.9826,13.2982,4.35628,2453.559,36.2055
2023-11-10T12:06:49,2420,42.8014,5.9826,13.2982,4.35643,2453.559,36.2069
2023-11-10T12:09:49,2420,42.8014,5.9826,13.2986,4.35591,2453.567,36.2016
2023-11-10T12:12:49,2420,42.8014,5.9826,13.2984,4.35607,2453.537,36.2032
2023-11-10T12:15:49,2420,42.8014,5.9826,13.2987,4.35643,2453.596,36.2063
2023-11-10T12:18:49,2420,42.8014,5.9826,13.2985,4.35591,2453.596,36.2016
2023-11-10T12:21:49,2420,42.8014,5.9826,13.2986,4.35632,2453.559,36.2054
2023-11-10T12:24:49,2420,42.8014,5.9826,13.2986,4.35607,2453.559,36.2031
2023-11-10T12:27:49,2420,42.8014,5.9826,13.2989,4.35654,2453.582,36.2072
2023-11-10T12:30:49,2420,42.8014,5.9826,13.2982,4.35608,2453.559,36.2036
2023-11-10T12:33:49,2420,42.8014,5.9826,13.2981,4.35623,2453.567,36.2051
2023-11-10T12:36:49,2420,42.8014,5.9826,13.2987,4.35645,2453.567,36.2065
2023-11-10T12:39:49,2420,42.8014,5.9826,13.2985,4.35618,2453.559,36.2042
2023-11-10T12:42:49,2420,42.8014,5.9826,13.2983,4.35659,2453.582,36.2082
2023-11-10T12:45:49,2420,42.8014,5.9826,13.2988,4.35614,2453.559,36.2036
2023-11-10T12:48:49,2420,42.8014,5.9826,13.2982,4.35690,2453.582,36.2112
2023-11-10T12:51:49,2420,42.8014,5.9826,13.2986,4.35672,2453.582,36.2092
2023-11-10T12:54:49,2420,42.8014,5.9826,13.2988,4.35657,2453.582,36.2075
2023-11-10T12:57:49,2420,42.8014,5.9826,13.2982,4.35683,2453.559,36.2106
2023-11-10T13:00:49,2420,42.8014,5.9826,13.2986,4.35649,2453.582,36.2070
2023-11-10T13:03:50,2420,42.8014,5.9826,13.2983,4.35670,2453.582,36.2092
2023-11-10T13:06:49,2420,42.8014,5.9826,13.2987,4.35662,2453.544,36.2081
2023-11-10T13:09:49,2420,42.8014,5.9826,13.2983,4.35668,2453.604,36.2090
2023-11-10T13:12:49,2420,42.8014,5.9826,13.2985,4.35652,2453.567,36.2074
2023-11-10T13:15:49,2420,42.8014,5.9826,13.2985,4.35599,2453.559,36.2024
2023-11-10T13:18:49,2420,42.8014,5.9826,13.2982,4.35629,2453.582,36.2055
2023-11-10T13:21:49,2420,42.8014,5.9826,13.2982,4.35623,2453.619,36.2050
2023-11-10T13:24:49,2420,42.8014,5.9826,13.2985,4.35632,2453.582,36.2055
2023-11-10T13:27:49,2420,42.8014,5.9826,13.2986,4.35611,2453.582,36.2034
2023-11-10T13:30:50,2420,42.8014,5.9826,13.2986,4.35638,2453.582,36.2059
2023-11-10T13:33:49,2420,42.8014,5.9826,13.2985,4.35623,2453.604,36.2047
2023-11-10T13:36:49,2420,42.8014,5.9826,13.2983,4.35649,2453.604,36.2073
2023-11-10T13:39:49,2420,42.8014,5.9826,13.2982,4.35695,2453.582,36.2117
2023-11-10T13:42:49,2420,42.8014,5.9826,13.2985,4.35355,2453.604,36.1796
2023-11-10T13:45:49,2420,42.8014,5.9826,13.2981,4.35558,2453.590,36.1990
2023-11-10T13:48:49,2420,42.8014,5.9826,13.2982,4.35615,2453.627,36.2042
2023-11-10T13:51:49,2420,42.8014,5.9826,13.2981,4.35324,2453.582,36.1771
2023-11-10T13:54:49,2420,42.8014,5.9826,13.2985,4.35568,2453.604,36.1995
2023-11-10T13:57:49,2420,42.8014,5.9826,13.2985,4.35608,2453.590,36.2033
2023-11-10T14:00:49,2420,42.8014,5.9826,13.2982,4.35675,2453.604,36.2098
2023-11-10T14:03:49,2420,42.8014,5.9826,13.2986,4.35677,2453.582,36.2097
2023-11-10T14:06:49,2420,42.8014,5.9826,13.2984,4.35667,2453.590,36.2089
2023-11-10T14:09:49,2420,42.8014,5.9826,13.2984,4.35648,2453.604,36.2071
2023-11-10T14:12:49,2420,42.8014,5.9826,13.2985,4.35672,2453.604,36.2093
2023-11-10T14:15:49,2420,42.8014,5.9826,13.2982,4.35680,2453.627,36.2103
2023-11-10T14:18:49,2420,42.8014,5.9826,13.2988,4.35672,2453.604,36.2090
2023-11-10T14:21:49,2420,42.8014,5.9826,13.2982,4.35654,2453.619,36.2078
2023-11-10T14:24:49,2420,42.8014,5.9826,13.2980,4.35674,2453.604,36.2099
2023-11-10T14:27:49,2420,42.8014,5.9826,13.2984,4.35694,2453.604,36.2114
2023-11-10T14:30:49,2420,42.8014,5.9826,13.2981,4.35640,2453.604,36.2066
2023-11-10T14:33:49,2420,42.8014,5.9826,13.2984,4.35653,2453.582,36.2075
2023-11-10T14:36:49,2420,42.8014,5.9826,13.2985,4.35616,2453.604,36.2040
2023-11-10T14:39:49,2420,42.8014,5.9826,13.2982,4.35636,2453.604,36.2061
2023-11-10T14:42:49,2420,42.8014,5.9826,13.2985,4.35586,2453.612,36.2012
2023-11-10T14:45:49,2420,42.8014,5.9826,13.2983,4.35610,2453.619,36.2036
2023-11-10T14:48:49,2420,42.8014,5.9826,13.2986,4.35583,2453.627,36.2008
2023-11-10T14:51:49,2420,42.8014,5.9826,13.2984,4.35570,2453.649,36.1998
2023-11-10T14:54:49,2420,42.8014,5.9826,13.2982,4.35579,2453.627,36.2008
2023-11-10T14:57:49,2420,42.8014,5.9826,13.2983,4.35576,2453.635,36.2005
2023-11-10T15:00:49,2420,42.8014,5.9826,13.2984,4.35552,2453.590,36.1981
2023-11-10T15:03:49,2420,42.8014,5.9826,13.2985,4.35545,2453.672,36.1974
2023-11-10T15:06:49,2420,42.8014,5.9826,13.2983,4.35560,2453.657,36.1989
2023-11-10T15:09:50,2420,42.8014,5.9826,13.2984,4.35574,2453.649,36.2001
2023-11-10T15:12:49,2420,42.8014,5.9826,13.2979,4.35568,2453.649,36.2000
2023-11-10T15:15:49,2420,42.8014,5.9826,13.2984,4.35528,2453.649,36.1958
2023-11-10T15:18:49,2420,42.8014,5.9826,13.2982,4.35552,2453.612,36.1983
2023-11-10T15:21:49,2420,42.8014,5.9826,13.2984,4.35544,2453.649,36.1973
2023-11-10T15:24:49,2420,42.8014,5.9826,13.2982,4.35562,2453.627,36.1992
2023-11-10T15:27:49,2420,42.8014,5.9826,13.2985,4.35542,2453.635,36.1971
2023-11-10T15:30:49,2420,42.8014,5.9826,13.2982,4.35536,2453.649,36.1968
2023-11-10T15:33:49,2420,42.8014,5.9826,13.2985,4.35567,2453.649,36.1994
2023-11-10T15:36:49,2420,42.8014,5.9826,13.2989,4.35565,2453.649,36.1989
2023-11-10T15:39:49,2420,42.8014,5.9826,13.2984,4.35546,2453.649,36.1975
2023-11-10T15:42:49,2420,42.8014,5.9826,13.2981,4.35583,2453.672,36.2012
2023-11-10T15:45:49,2420,42.8014,5.9826,13.2983,4.35565,2453.649,36.1994
2023-11-10T15:48:49,2420,42.8014,5.9826,13.2984,4.35625,2453.672,36.2049
2023-11-10T15:51:49,2420,42.8014,5.9826,13.2983,4.35568,2453.680,36.1996
2023-11-10T15:54:49,2420,42.8014,5.9826,13.2985,4.35599,2453.672,36.2024
2023-11-10T15:57:49,2420,42.8014,5.9826,13.2983,4.35610,2453.649,36.2036
2023-11-10T16:00:49,2420,42.8014,5.9826,13.2986,4.35591,2453.649,36.2015
2023-11-10T16:03:49,2420,42.8014,5.9826,13.2986,4.35614,2453.649,36.2037